| time (UTC) | temp F | wind direction | speed MPH | gust MPH | rain 1hr in | rain 24hr in | rain mn in | humidity % | barometer mb |
| 20260510060112 | 63 | 229 | 2.0 | 5.0 | 0.00 | 0.00 | 0.00 | 80 | 1013.6 |
| 20260510055611 | 64 | 229 | 3.0 | 6.0 | 0.00 | 0.00 | 0.00 | 80 | 1013.5 |
| 20260510055109 | 64 | 229 | 3.0 | 7.0 | 0.00 | 0.00 | 0.00 | 80 | 1013.5 |
| 20260510054604 | 64 | 229 | 3.0 | 7.0 | 0.00 | 0.00 | 0.00 | 80 | 1013.5 |
| 20260510054102 | 64 | 229 | 2.0 | 5.0 | 0.00 | 0.00 | 0.00 | 79 | 1013.5 |
| 20260510053558 | 64 | 229 | 2.0 | 4.0 | 0.00 | 0.00 | 0.00 | 79 | 1013.5 |
| 20260510053057 | 64 | 229 | 2.0 | 5.0 | 0.00 | 0.00 | 0.00 | 79 | 1013.6 |
| 20260510052557 | 64 | 229 | 3.0 | 6.0 | 0.00 | 0.00 | 0.00 | 79 | 1013.6 |
| 20260510052324 | 64 | 229 | 3.0 | 6.0 | 0.00 | 0.00 | 0.00 | 78 | 1013.5 |
| 20260510051548 | 65 | 229 | 3.0 | 6.0 | 0.00 | 0.00 | 0.00 | 78 | 1013.4 |
| 20260510051049 | 65 | 229 | 3.0 | 5.0 | 0.00 | 0.00 | 0.00 | 77 | 1013.5 |
| 20260510050550 | 65 | 229 | 4.0 | 6.0 | 0.00 | 0.00 | 0.00 | 77 | 1013.4 |
| 20260510050059 | 65 | 229 | 4.0 | 7.0 | 0.00 | 0.00 | 0.00 | 76 | 1013.3 |
| 20260510045546 | 66 | 229 | 4.0 | 7.0 | 0.00 | 0.00 | 0.00 | 76 | 1013.3 |
| 20260510045315 | 66 | 230 | 4.0 | 7.0 | 0.00 | 0.00 | 0.00 | 75 | 1013.3 |
| 20260510044545 | 66 | 229 | 4.0 | 7.0 | 0.00 | 0.00 | 0.00 | 75 | 1013.3 |
| 20260510044042 | 66 | 230 | 3.0 | 7.0 | 0.00 | 0.00 | 0.00 | 75 | 1013.2 |
| 20260510043815 | 66 | 231 | 3.0 | 7.0 | 0.00 | 0.00 | 0.00 | 75 | 1013.1 |
| 20260510043036 | 67 | 231 | 4.0 | 7.0 | 0.00 | 0.00 | 0.00 | 74 | 1013.1 |
| 20260510042036 | 67 | 223 | 4.0 | 9.0 | 0.00 | 0.00 | 0.00 | 74 | 1012.9 |
| 20260510041536 | 67 | 222 | 5.0 | 9.0 | 0.00 | 0.00 | 0.00 | 73 | 1012.9 |
| 20260510041036 | 67 | 222 | 5.0 | 9.0 | 0.00 | 0.00 | 0.00 | 73 | 1012.7 |
| 20260510040533 | 67 | 223 | 5.0 | 8.0 | 0.00 | 0.00 | 0.00 | 72 | 1012.7 |
| 20260510040034 | 67 | 227 | 6.0 | 9.0 | 0.00 | 0.00 | 0.00 | 72 | 1012.6 |
| 20260510035534 | 68 | 232 | 6.0 | 9.0 | 0.00 | 0.00 | 0.00 | 71 | 1012.5 |
| 20260510035306 | 68 | 221 | 5.0 | 8.0 | 0.00 | 0.00 | 0.00 | 70 | 1012.6 |
| 20260510034534 | 68 | 219 | 4.0 | 8.0 | 0.00 | 0.00 | 0.00 | 70 | 1012.5 |
| 20260510034035 | 69 | 222 | 4.0 | 8.0 | 0.00 | 0.00 | 0.00 | 69 | 1012.3 |
| 20260510033805 | 69 | 222 | 4.0 | 8.0 | 0.00 | 0.00 | 0.00 | 68 | 1012.2 |
| 20260510033034 | 69 | 222 | 4.0 | 7.0 | 0.00 | 0.00 | 0.00 | 67 | 1012.2 |
| 20260510032535 | 70 | 223 | 5.0 | 7.0 | 0.00 | 0.00 | 0.00 | 67 | 1012.1 |
| 20260510032033 | 70 | 223 | 6.0 | 10.0 | 0.00 | 0.00 | 0.00 | 67 | 1012.1 |
| 20260510031532 | 70 | 222 | 6.0 | 10.0 | 0.00 | 0.00 | 0.00 | 66 | 1012.0 |
| 20260510031032 | 71 | 223 | 6.0 | 10.0 | 0.00 | 0.00 | 0.00 | 65 | 1011.9 |
| 20260510030532 | 71 | 225 | 5.0 | 10.0 | 0.00 | 0.00 | 0.00 | 64 | 1011.8 |
| 20260510030030 | 71 | 221 | 5.0 | 10.0 | 0.00 | 0.00 | 0.00 | 63 | 1011.8 |
| 20260510025802 | 72 | 219 | 6.0 | 11.0 | 0.00 | 0.00 | 0.00 | 63 | 1011.7 |
| 20260510025023 | 72 | 219 | 7.0 | 12.0 | 0.00 | 0.00 | 0.00 | 62 | 1011.7 |
| 20260510024525 | 73 | 217 | 6.0 | 12.0 | 0.00 | 0.00 | 0.00 | 61 | 1011.6 |
| 20260510024024 | 73 | 227 | 5.0 | 9.0 | 0.00 | 0.00 | 0.00 | 60 | 1011.5 |
| 20260510023025 | 74 | 222 | 6.0 | 11.0 | 0.00 | 0.00 | 0.00 | 58 | 1011.4 |
| 20260510022523 | 75 | 225 | 6.0 | 13.0 | 0.00 | 0.00 | 0.00 | 57 | 1011.4 |
| 20260510022023 | 75 | 217 | 6.0 | 13.0 | 0.00 | 0.00 | 0.00 | 56 | 1011.3 |
| 20260510021520 | 76 | 221 | 7.0 | 14.0 | 0.00 | 0.00 | 0.00 | 54 | 1011.3 |
| 20260510021018 | 76 | 228 | 8.0 | 14.0 | 0.00 | 0.00 | 0.00 | 53 | 1011.2 |
| 20260510020801 | 77 | 226 | 8.0 | 12.0 | 0.00 | 0.00 | 0.00 | 52 | 1011.2 |
| 20260510015516 | 77 | 221 | 8.0 | 12.0 | 0.00 | 0.00 | 0.00 | 50 | 1011.2 |
| 20260510015016 | 78 | 220 | 8.0 | 12.0 | 0.00 | 0.00 | 0.00 | 50 | 1011.1 |
| 20260510014517 | 78 | 219 | 8.0 | 12.0 | 0.00 | 0.00 | 0.00 | 49 | 1011.0 |
| 20260510014012 | 78 | 219 | 8.0 | 13.0 | 0.00 | 0.00 | 0.00 | 48 | 1011.0 |
| 20260510013512 | 79 | 217 | 8.0 | 14.0 | 0.00 | 0.00 | 0.00 | 46 | 1011.0 |
| 20260510013012 | 80 | 215 | 7.0 | 14.0 | 0.00 | 0.00 | 0.00 | 46 | 1011.0 |
| 20260510012513 | 80 | 223 | 7.0 | 11.0 | 0.00 | 0.00 | 0.00 | 46 | 1010.9 |
| 20260510012240 | 81 | 230 | 6.0 | 11.0 | 0.00 | 0.00 | 0.00 | 45 | 1010.8 |
| 20260510011509 | 81 | 226 | 7.0 | 17.0 | 0.00 | 0.00 | 0.00 | 43 | 1010.8 |
| 20260510011008 | 81 | 218 | 8.0 | 17.0 | 0.00 | 0.00 | 0.00 | 43 | 1010.8 |
| 20260510010737 | 82 | 227 | 7.0 | 16.0 | 0.00 | 0.00 | 0.00 | 42 | 1010.8 |
| 20260510010005 | 82 | 236 | 8.0 | 16.0 | 0.00 | 0.00 | 0.00 | 42 | 1010.8 |
| 20260510005504 | 82 | 227 | 8.0 | 14.0 | 0.00 | 0.00 | 0.00 | 42 | 1010.7 |
| 20260510005235 | 82 | 220 | 9.0 | 15.0 | 0.00 | 0.00 | 0.00 | 41 | 1010.7 |
| 20260510004502 | 82 | 232 | 10.0 | 17.0 | 0.00 | 0.00 | 0.00 | 42 | 1010.7 |
| 20260510004232 | 82 | 221 | 10.0 | 17.0 | 0.00 | 0.00 | 0.00 | 41 | 1010.6 |
| 20260510003500 | 83 | 214 | 8.0 | 15.0 | 0.00 | 0.00 | 0.00 | 41 | 1010.6 |
| 20260510003231 | 83 | 232 | 9.0 | 16.0 | 0.00 | 0.00 | 0.00 | 41 | 1010.6 |
| 20260510002730 | 83 | 222 | 9.0 | 16.0 | 0.00 | 0.00 | 0.00 | 42 | 1010.6 |
| 20260510001958 | 84 | 221 | 8.0 | 16.0 | 0.00 | 0.00 | 0.00 | 41 | 1010.6 |
| 20260510001458 | 84 | 227 | 9.0 | 16.0 | 0.00 | 0.00 | 0.00 | 43 | 1010.6 |
| 20260510001011 | 84 | 240 | 10.0 | 16.0 | 0.00 | 0.00 | 0.00 | 41 | 1010.5 |
| 20260510000458 | 84 | 209 | 9.0 | 16.0 | 0.00 | 0.00 | 0.00 | 41 | 1010.6 |
| 20260509235957 | 85 | 257 | 9.0 | 16.0 | 0.00 | 0.00 | 0.00 | 41 | 1010.6 |
| 20260509235454 | 85 | 216 | 8.0 | 16.0 | 0.00 | 0.00 | 0.00 | 40 | 1010.7 |
| 20260509234955 | 85 | 213 | 8.0 | 15.0 | 0.00 | 0.00 | 0.00 | 41 | 1010.6 |
| 20260509234450 | 86 | 227 | 8.0 | 15.0 | 0.00 | 0.00 | 0.00 | 41 | 1010.6 |
| 20260509233950 | 86 | 225 | 7.0 | 15.0 | 0.00 | 0.00 | 0.00 | 39 | 1010.7 |
| 20260509233451 | 86 | 226 | 7.0 | 14.0 | 0.00 | 0.00 | 0.00 | 41 | 1010.6 |
| 20260509232944 | 87 | 219 | 7.0 | 14.0 | 0.00 | 0.00 | 0.00 | 37 | 1010.6 |
| 20260509232444 | 87 | 263 | 7.0 | 13.0 | 0.00 | 0.00 | 0.00 | 37 | 1010.7 |
| 20260509232214 | 86 | 216 | 7.0 | 14.0 | 0.00 | 0.00 | 0.00 | 39 | 1010.7 |
| 20260509231443 | 87 | 225 | 7.0 | 14.0 | 0.00 | 0.00 | 0.00 | 37 | 1010.6 |
| 20260509230943 | 87 | 225 | 7.0 | 13.0 | 0.00 | 0.00 | 0.00 | 37 | 1010.7 |
| 20260509230445 | 87 | 253 | 7.0 | 14.0 | 0.00 | 0.00 | 0.00 | 38 | 1010.6 |
| 20260509225944 | 87 | 248 | 7.0 | 14.0 | 0.00 | 0.00 | 0.00 | 38 | 1010.8 |
| 20260509225444 | 87 | 213 | 7.0 | 13.0 | 0.00 | 0.00 | 0.00 | 38 | 1010.8 |
| 20260509224943 | 87 | 255 | 7.0 | 15.0 | 0.00 | 0.00 | 0.00 | 37 | 1010.8 |
| 20260509224439 | 87 | 216 | 7.0 | 15.0 | 0.00 | 0.00 | 0.00 | 38 | 1010.9 |
| 20260509223938 | 87 | 242 | 8.0 | 15.0 | 0.00 | 0.00 | 0.00 | 39 | 1010.9 |
| 20260509223709 | 88 | 236 | 7.0 | 15.0 | 0.00 | 0.00 | 0.00 | 38 | 1010.9 |
| 20260509222938 | 88 | 232 | 6.0 | 12.0 | 0.00 | 0.00 | 0.00 | 39 | 1010.9 |
| 20260509222438 | 88 | 267 | 7.0 | 11.0 | 0.00 | 0.00 | 0.00 | 39 | 1011.0 |
| 20260509222209 | 88 | 267 | 7.0 | 12.0 | 0.00 | 0.00 | 0.00 | 37 | 1011.0 |
| 20260509221437 | 87 | 259 | 6.0 | 13.0 | 0.00 | 0.00 | 0.00 | 39 | 1011.1 |
| 20260509220934 | 87 | 222 | 6.0 | 13.0 | 0.00 | 0.00 | 0.00 | 39 | 1011.2 |
| 20260509220434 | 87 | 215 | 7.0 | 12.0 | 0.00 | 0.00 | 0.00 | 39 | 1011.2 |
| 20260509220201 | 87 | 262 | 8.0 | 13.0 | 0.00 | 0.00 | 0.00 | 41 | 1011.2 |
| 20260509215702 | 86 | 234 | 7.0 | 13.0 | 0.00 | 0.00 | 0.00 | 40 | 1011.3 |
| 20260509214930 | 86 | 222 | 7.0 | 13.0 | 0.00 | 0.00 | 0.00 | 40 | 1011.4 |
| 20260509214426 | 86 | 226 | 7.0 | 14.0 | 0.00 | 0.00 | 0.00 | 41 | 1011.4 |
| 20260509213926 | 86 | 225 | 7.0 | 14.0 | 0.00 | 0.00 | 0.00 | 41 | 1011.4 |
| 20260509213426 | 86 | 225 | 6.0 | 12.0 | 0.00 | 0.00 | 0.00 | 41 | 1011.4 |
| 20260509212924 | 87 | 217 | 7.0 | 12.0 | 0.00 | 0.00 | 0.00 | 42 | 1011.5 |
| 20260509212656 | 86 | 219 | 7.0 | 13.0 | 0.00 | 0.00 | 0.00 | 40 | 1011.6 |
| 20260509211925 | 87 | 232 | 6.0 | 13.0 | 0.00 | 0.00 | 0.00 | 40 | 1011.7 |
| 20260509211425 | 86 | 235 | 6.0 | 11.0 | 0.00 | 0.00 | 0.00 | 41 | 1011.8 |
| 20260509210922 | 87 | 249 | 5.0 | 11.0 | 0.00 | 0.00 | 0.00 | 39 | 1011.9 |
| 20260509210420 | 87 | 221 | 5.0 | 11.0 | 0.00 | 0.00 | 0.00 | 39 | 1011.9 |
| 20260509205921 | 87 | 227 | 5.0 | 9.0 | 0.00 | 0.00 | 0.00 | 39 | 1012.0 |
| 20260509205417 | 87 | 201 | 5.0 | 9.0 | 0.00 | 0.00 | 0.00 | 40 | 1012.0 |
| 20260509204918 | 86 | 225 | 5.0 | 9.0 | 0.00 | 0.00 | 0.00 | 40 | 1012.1 |
| 20260509204419 | 86 | 226 | 6.0 | 12.0 | 0.00 | 0.00 | 0.00 | 41 | 1012.1 |
| 20260509203413 | 86 | 221 | 5.0 | 11.0 | 0.00 | 0.00 | 0.00 | 42 | 1012.0 |
| 20260509203145 | 85 | 242 | 4.0 | 11.0 | 0.00 | 0.00 | 0.00 | 43 | 1012.1 |
| 20260509202410 | 85 | 221 | 5.0 | 9.0 | 0.00 | 0.00 | 0.00 | 41 | 1012.2 |
| 20260509201910 | 85 | 225 | 5.0 | 9.0 | 0.00 | 0.00 | 0.00 | 42 | 1012.2 |
| 20260509201409 | 86 | 232 | 4.0 | 10.0 | 0.00 | 0.00 | 0.00 | 38 | 1012.3 |
| 20260509200909 | 85 | 225 | 4.0 | 10.0 | 0.00 | 0.00 | 0.00 | 39 | 1012.3 |
| 20260509200637 | 85 | 202 | 4.0 | 7.0 | 0.00 | 0.00 | 0.00 | 39 | 1012.5 |
| 20260509195906 | 84 | 252 | 4.0 | 8.0 | 0.00 | 0.00 | 0.00 | 39 | 1012.5 |
| 20260509195404 | 84 | 247 | 4.0 | 8.0 | 0.00 | 0.00 | 0.00 | 40 | 1012.6 |
| 20260509194903 | 83 | 171 | 4.0 | 9.0 | 0.00 | 0.00 | 0.00 | 40 | 1012.7 |
| 20260509194405 | 83 | 226 | 4.0 | 9.0 | 0.00 | 0.00 | 0.00 | 39 | 1012.7 |
| 20260509193905 | 84 | 232 | 3.0 | 7.0 | 0.00 | 0.00 | 0.00 | 41 | 1012.8 |
| 20260509193403 | 84 | 224 | 3.0 | 7.0 | 0.00 | 0.00 | 0.00 | 42 | 1012.9 |
| 20260509192859 | 83 | 223 | 3.0 | 7.0 | 0.00 | 0.00 | 0.00 | 43 | 1012.9 |
| 20260509192358 | 82 | 213 | 3.0 | 7.0 | 0.00 | 0.00 | 0.00 | 45 | 1013.0 |
| 20260509191858 | 82 | 213 | 3.0 | 7.0 | 0.00 | 0.00 | 0.00 | 45 | 1013.0 |
| 20260509191358 | 81 | 213 | 4.0 | 8.0 | 0.00 | 0.00 | 0.00 | 45 | 1013.1 |
| 20260509190854 | 81 | 221 | 3.0 | 8.0 | 0.00 | 0.00 | 0.00 | 47 | 1013.1 |
| 20260509190355 | 81 | 232 | 4.0 | 9.0 | 0.00 | 0.00 | 0.00 | 47 | 1013.2 |
| 20260509185852 | 80 | 246 | 3.0 | 9.0 | 0.00 | 0.00 | 0.00 | 51 | 1013.2 |
| 20260509185352 | 79 | 234 | 4.0 | 8.0 | 0.00 | 0.00 | 0.00 | 50 | 1013.2 |
| 20260509184850 | 79 | 242 | 3.0 | 7.0 | 0.00 | 0.00 | 0.00 | 53 | 1013.3 |
| 20260509184351 | 78 | 240 | 4.0 | 7.0 | 0.00 | 0.00 | 0.00 | 54 | 1013.4 |
| 20260509183849 | 78 | 254 | 4.0 | 7.0 | 0.00 | 0.00 | 0.00 | 55 | 1013.5 |
| 20260509183348 | 77 | 234 | 4.0 | 7.0 | 0.00 | 0.00 | 0.00 | 56 | 1013.4 |
| 20260509182847 | 76 | 236 | 3.0 | 8.0 | 0.00 | 0.00 | 0.00 | 58 | 1013.4 |
| 20260509182347 | 76 | 242 | 3.0 | 7.0 | 0.00 | 0.00 | 0.00 | 58 | 1013.4 |
| 20260509181844 | 76 | 246 | 3.0 | 7.0 | 0.00 | 0.00 | 0.00 | 60 | 1013.5 |
| 20260509181344 | 75 | 250 | 3.0 | 7.0 | 0.00 | 0.00 | 0.00 | 63 | 1013.5 |
| 20260509180843 | 74 | 252 | 2.0 | 6.0 | 0.00 | 0.00 | 0.00 | 64 | 1013.6 |
| 20260509180343 | 74 | 249 | 2.0 | 6.0 | 0.00 | 0.00 | 0.00 | 63 | 1013.6 |
| 20260509175840 | 74 | 252 | 2.0 | 4.0 | 0.00 | 0.00 | 0.00 | 65 | 1013.6 |
| 20260509175612 | 73 | 252 | 1.0 | 4.0 | 0.00 | 0.00 | 0.00 | 66 | 1013.6 |
| 20260509174840 | 72 | 223 | 1.0 | 4.0 | 0.00 | 0.00 | 0.00 | 68 | 1013.7 |
| 20260509174336 | 71 | 223 | 1.0 | 4.0 | 0.00 | 0.00 | 0.00 | 69 | 1013.8 |
| 20260509173836 | 71 | 223 | 2.0 | 4.0 | 0.00 | 0.00 | 0.00 | 70 | 1013.7 |
| 20260509172837 | 70 | 223 | 2.0 | 5.0 | 0.00 | 0.00 | 0.00 | 76 | 1013.8 |
| 20260509172336 | 69 | 223 | 2.0 | 5.0 | 0.00 | 0.00 | 0.00 | 77 | 1013.9 |
| 20260509171837 | 68 | 223 | 2.0 | 4.0 | 0.00 | 0.00 | 0.00 | 79 | 1013.9 |
| 20260509171336 | 67 | 223 | 2.0 | 4.0 | 0.00 | 0.00 | 0.00 | 81 | 1013.9 |
| 20260509170836 | 67 | 223 | 1.0 | 4.0 | 0.00 | 0.00 | 0.00 | 82 | 1014.0 |
| 20260509170336 | 66 | 223 | 1.0 | 4.0 | 0.00 | 0.00 | 0.00 | 84 | 1014.0 |
| 20260509170108 | 66 | 223 | 1.0 | 5.0 | 0.00 | 0.00 | 0.00 | 84 | 1013.9 |
| 20260509165337 | 64 | 223 | 2.0 | 6.0 | 0.00 | 0.00 | 0.00 | 84 | 1014.0 |
| 20260509164837 | 64 | 224 | 2.0 | 6.0 | 0.00 | 0.00 | 0.00 | 83 | 1014.0 |
| 20260509164335 | 64 | 227 | 1.0 | 6.0 | 0.00 | 0.00 | 0.00 | 79 | 1014.0 |
| 20260509163836 | 64 | 227 | 1.0 | 3.0 | 0.00 | 0.00 | 0.00 | 78 | 1014.0 |
| 20260509163331 | 63 | 227 | 1.0 | 3.0 | 0.00 | 0.00 | 0.00 | 78 | 1014.0 |
| 20260509162833 | 62 | 227 | 1.0 | 3.0 | 0.00 | 0.00 | 0.00 | 77 | 1014.1 |
| 20260509162332 | 62 | 227 | 2.0 | 5.0 | 0.00 | 0.00 | 0.00 | 77 | 1014.2 |
| 20260509162056 | 62 | 227 | 2.0 | 6.0 | 0.00 | 0.00 | 0.00 | 76 | 1014.1 |
| 20260509161327 | 62 | 227 | 1.0 | 5.0 | 0.00 | 0.00 | 0.00 | 76 | 1014.1 |
| 20260509161058 | 61 | 227 | 1.0 | 4.0 | 0.00 | 0.00 | 0.00 | 76 | 1014.1 |
| 20260509160327 | 61 | 227 | 1.0 | 3.0 | 0.00 | 0.00 | 0.00 | 76 | 1014.2 |
| 20260509155826 | 61 | 227 | 0.0 | 3.0 | 0.00 | 0.00 | 0.00 | 76 | 1014.2 |
| 20260509155322 | 61 | 227 | 1.0 | 3.0 | 0.00 | 0.00 | 0.00 | 77 | 1014.3 |
| 20260509154555 | 60 | 227 | 1.0 | 3.0 | 0.00 | 0.00 | 0.00 | 77 | 1014.2 |
| 20260509153823 | 60 | 227 | 1.0 | 3.0 | 0.00 | 0.00 | 0.00 | 77 | 1014.2 |
| 20260509153320 | 60 | 227 | 1.0 | 3.0 | 0.00 | 0.00 | 0.00 | 77 | 1014.3 |
| 20260509152319 | 60 | 227 | 0.0 | 3.0 | 0.00 | 0.00 | 0.00 | 76 | 1014.2 |
| 20260509151818 | 60 | 227 | 1.0 | 4.0 | 0.00 | 0.00 | 0.00 | 76 | 1014.3 |
| 20260509151318 | 60 | 227 | 1.0 | 4.0 | 0.00 | 0.00 | 0.00 | 77 | 1014.3 |
| 20260509150817 | 60 | 227 | 1.0 | 3.0 | 0.00 | 0.00 | 0.00 | 77 | 1014.3 |
| 20260509145815 | 60 | 227 | 1.0 | 4.0 | 0.00 | 0.00 | 0.00 | 77 | 1014.3 |
| 20260509144310 | 60 | 227 | 1.0 | 4.0 | 0.00 | 0.00 | 0.00 | 78 | 1014.3 |
| 20260509143810 | 59 | 227 | 1.0 | 3.0 | 0.00 | 0.00 | 0.00 | 78 | 1014.3 |
| 20260509143538 | 59 | 227 | 1.0 | 3.0 | 0.00 | 0.00 | 0.00 | 78 | 1014.2 |
| 20260509143039 | 59 | 227 | 1.0 | 3.0 | 0.00 | 0.00 | 0.00 | 78 | 1014.2 |
| 20260509142307 | 59 | 227 | 1.0 | 3.0 | 0.00 | 0.00 | 0.00 | 78 | 1014.2 |
| 20260509141806 | 59 | 229 | 0.0 | 3.0 | 0.00 | 0.00 | 0.00 | 78 | 1014.1 |
| 20260509140807 | 59 | 229 | 0.0 | 2.0 | 0.00 | 0.00 | 0.00 | 79 | 1014.1 |
| 20260509140538 | 59 | 229 | 0.0 | 2.0 | 0.00 | 0.00 | 0.00 | 79 | 1014.1 |
| 20260509135803 | 59 | 229 | 0.0 | 1.0 | 0.00 | 0.00 | 0.00 | 79 | 1014.1 |
| 20260509135533 | 59 | 229 | 0.0 | 2.0 | 0.00 | 0.00 | 0.00 | 79 | 1014.1 |
| 20260509134803 | 59 | 229 | 0.0 | 2.0 | 0.00 | 0.00 | 0.00 | 79 | 1014.1 |
| 20260509134258 | 59 | 229 | 0.0 | 2.0 | 0.00 | 0.00 | 0.00 | 80 | 1014.0 |
| 20260509133758 | 59 | 229 | 0.0 | 1.0 | 0.00 | 0.00 | 0.00 | 80 | 1014.0 |
| 20260509133530 | 59 | 229 | 1.0 | 3.0 | 0.00 | 0.00 | 0.00 | 80 | 1014.0 |
| 20260509132759 | 59 | 229 | 1.0 | 3.0 | 0.00 | 0.00 | 0.00 | 80 | 1013.9 |
| 20260509132259 | 58 | 229 | 0.0 | 3.0 | 0.00 | 0.00 | 0.00 | 80 | 1013.9 |
| 20260509131757 | 58 | 229 | 1.0 | 3.0 | 0.00 | 0.00 | 0.00 | 81 | 1013.8 |
| 20260509131311 | 58 | 229 | 1.0 | 3.0 | 0.00 | 0.00 | 0.00 | 81 | 1013.8 |
| 20260509130754 | 58 | 229 | 1.0 | 3.0 | 0.00 | 0.00 | 0.00 | 81 | 1013.7 |
| 20260509130306 | 58 | 223 | 1.0 | 3.0 | 0.00 | 0.00 | 0.00 | 81 | 1013.7 |
| 20260509130025 | 58 | 223 | 1.0 | 3.0 | 0.00 | 0.00 | 0.00 | 81 | 1013.6 |
| 20260509125252 | 58 | 223 | 2.0 | 4.0 | 0.00 | 0.00 | 0.00 | 81 | 1013.6 |
| 20260509124749 | 58 | 223 | 2.0 | 4.0 | 0.00 | 0.00 | 0.00 | 82 | 1013.6 |
| 20260509124250 | 58 | 223 | 2.0 | 3.0 | 0.00 | 0.00 | 0.00 | 82 | 1013.5 |
| 20260509123745 | 58 | 223 | 1.0 | 3.0 | 0.00 | 0.00 | 0.00 | 82 | 1013.6 |
| 20260509123246 | 58 | 223 | 0.0 | 2.0 | 0.00 | 0.00 | 0.00 | 83 | 1013.6 |
| 20260509122746 | 57 | 223 | 0.0 | 0.0 | 0.00 | 0.00 | 0.00 | 83 | 1013.5 |
| 20260509122516 | 58 | 223 | 0.0 | 0.0 | 0.00 | 0.00 | 0.00 | 83 | 1013.5 |
| 20260509121742 | 58 | 223 | 0.0 | 0.0 | 0.00 | 0.00 | 0.00 | 83 | 1013.5 |
| 20260509121242 | 58 | 223 | 0.0 | 0.0 | 0.00 | 0.00 | 0.00 | 83 | 1013.5 |
| 20260509120736 | 58 | 223 | 0.0 | 0.0 | 0.00 | 0.00 | 0.00 | 83 | 1013.5 |
| 20260509120237 | 58 | 223 | 0.0 | 0.0 | 0.00 | 0.00 | 0.00 | 83 | 1013.5 |
| 20260509115736 | 58 | 223 | 0.0 | 0.0 | 0.00 | 0.00 | 0.00 | 84 | 1013.5 |
| 20260509115236 | 58 | 223 | 0.0 | 0.0 | 0.00 | 0.00 | 0.00 | 84 | 1013.6 |
| 20260509114734 | 57 | 223 | 0.0 | 0.0 | 0.00 | 0.00 | 0.00 | 84 | 1013.6 |
| 20260509114505 | 58 | 223 | 0.0 | 0.0 | 0.00 | 0.00 | 0.00 | 84 | 1013.5 |
| 20260509113733 | 57 | 223 | 0.0 | 0.0 | 0.00 | 0.00 | 0.00 | 84 | 1013.5 |
| 20260509113235 | 57 | 223 | 0.0 | 0.0 | 0.00 | 0.00 | 0.00 | 85 | 1013.4 |
| 20260509112734 | 57 | 223 | 0.0 | 0.0 | 0.00 | 0.00 | 0.00 | 84 | 1013.4 |
| 20260509112233 | 58 | 223 | 0.0 | 0.0 | 0.00 | 0.00 | 0.00 | 84 | 1013.4 |
| 20260509111730 | 58 | 223 | 0.0 | 0.0 | 0.00 | 0.00 | 0.00 | 85 | 1013.5 |
| 20260509111230 | 58 | 223 | 0.0 | 0.0 | 0.00 | 0.00 | 0.00 | 85 | 1013.6 |
| 20260509110731 | 58 | 223 | 0.0 | 0.0 | 0.00 | 0.00 | 0.00 | 85 | 1013.6 |
| 20260509110230 | 58 | 223 | 0.0 | 0.0 | 0.00 | 0.00 | 0.00 | 85 | 1013.6 |
| 20260509105229 | 58 | 223 | 0.0 | 0.0 | 0.00 | 0.00 | 0.00 | 85 | 1013.6 |
| 20260509104725 | 58 | 223 | 0.0 | 0.0 | 0.00 | 0.00 | 0.00 | 85 | 1013.6 |
| 20260509104225 | 58 | 223 | 0.0 | 0.0 | 0.00 | 0.00 | 0.00 | 85 | 1013.6 |
| 20260509103724 | 58 | 223 | 0.0 | 0.0 | 0.00 | 0.00 | 0.00 | 85 | 1013.6 |
| 20260509103222 | 58 | 223 | 0.0 | 0.0 | 0.00 | 0.00 | 0.00 | 85 | 1013.6 |
| 20260509102720 | 58 | 223 | 0.0 | 0.0 | 0.00 | 0.00 | 0.00 | 85 | 1013.6 |
| 20260509101718 | 58 | 223 | 0.0 | 0.0 | 0.00 | 0.00 | 0.00 | 85 | 1013.7 |
| 20260509101218 | 58 | 223 | 0.0 | 0.0 | 0.00 | 0.00 | 0.00 | 86 | 1013.8 |
| 20260509100716 | 58 | 223 | 0.0 | 0.0 | 0.00 | 0.00 | 0.00 | 85 | 1013.8 |
| 20260509100227 | 58 | 223 | 0.0 | 0.0 | 0.00 | 0.00 | 0.00 | 86 | 1013.8 |
| 20260509095712 | 58 | 223 | 0.0 | 0.0 | 0.00 | 0.00 | 0.00 | 86 | 1013.8 |
| 20260509095213 | 58 | 223 | 1.0 | 3.0 | 0.00 | 0.00 | 0.00 | 86 | 1013.8 |
| 20260509094709 | 59 | 223 | 1.0 | 3.0 | 0.00 | 0.00 | 0.00 | 86 | 1013.8 |
| 20260509094208 | 59 | 223 | 1.0 | 3.0 | 0.00 | 0.00 | 0.00 | 86 | 1013.9 |
| 20260509093708 | 59 | 223 | 1.0 | 3.0 | 0.00 | 0.00 | 0.00 | 86 | 1013.9 |
| 20260509092709 | 59 | 223 | 1.0 | 3.0 | 0.00 | 0.00 | 0.00 | 86 | 1014.0 |
| 20260509092208 | 59 | 223 | 1.0 | 3.0 | 0.00 | 0.00 | 0.00 | 86 | 1014.1 |
| 20260509091939 | 59 | 223 | 1.0 | 2.0 | 0.00 | 0.00 | 0.00 | 86 | 1014.1 |
| 20260509091208 | 59 | 223 | 1.0 | 2.0 | 0.00 | 0.00 | 0.00 | 86 | 1014.1 |
| 20260509090709 | 59 | 223 | 1.0 | 2.0 | 0.00 | 0.00 | 0.00 | 85 | 1014.1 |
| 20260509090207 | 59 | 223 | 1.0 | 3.0 | 0.00 | 0.00 | 0.00 | 85 | 1014.1 |
| 20260509085705 | 59 | 223 | 1.0 | 3.0 | 0.00 | 0.00 | 0.00 | 85 | 1014.1 |
| 20260509085204 | 59 | 223 | 1.0 | 2.0 | 0.00 | 0.00 | 0.00 | 85 | 1014.2 |
| 20260509084701 | 60 | 223 | 1.0 | 2.0 | 0.00 | 0.00 | 0.00 | 85 | 1014.2 |
| 20260509084201 | 60 | 223 | 1.0 | 2.0 | 0.00 | 0.00 | 0.00 | 85 | 1014.2 |
| 20260509083701 | 60 | 223 | 1.0 | 2.0 | 0.00 | 0.00 | 0.00 | 85 | 1014.3 |
| 20260509083158 | 60 | 223 | 0.0 | 2.0 | 0.00 | 0.00 | 0.00 | 85 | 1014.3 |
| 20260509082657 | 60 | 223 | 1.0 | 2.0 | 0.00 | 0.00 | 0.00 | 85 | 1014.3 |
| 20260509082158 | 60 | 223 | 1.0 | 2.0 | 0.00 | 0.00 | 0.00 | 85 | 1014.3 |
| 20260509081657 | 60 | 223 | 0.0 | 2.0 | 0.00 | 0.00 | 0.00 | 85 | 1014.3 |
| 20260509081156 | 60 | 223 | 0.0 | 2.0 | 0.00 | 0.00 | 0.00 | 84 | 1014.4 |
| 20260509080655 | 60 | 223 | 1.0 | 2.0 | 0.00 | 0.00 | 0.00 | 85 | 1014.4 |
| 20260509080155 | 60 | 223 | 0.0 | 2.0 | 0.00 | 0.00 | 0.00 | 85 | 1014.5 |
| 20260509075653 | 60 | 223 | 0.0 | 2.0 | 0.00 | 0.00 | 0.00 | 85 | 1014.5 |
| 20260509075152 | 60 | 223 | 1.0 | 2.0 | 0.00 | 0.00 | 0.00 | 84 | 1014.5 |
| 20260509074922 | 60 | 223 | 1.0 | 2.0 | 0.00 | 0.00 | 0.00 | 84 | 1014.5 |
| 20260509074148 | 60 | 223 | 0.0 | 2.0 | 0.00 | 0.00 | 0.00 | 84 | 1014.6 |
| 20260509073648 | 60 | 223 | 1.0 | 3.0 | 0.00 | 0.00 | 0.00 | 84 | 1014.5 |
| 20260509073143 | 60 | 223 | 1.0 | 3.0 | 0.00 | 0.00 | 0.00 | 84 | 1014.5 |
| 20260509072641 | 61 | 223 | 0.0 | 3.0 | 0.00 | 0.00 | 0.00 | 84 | 1014.5 |
| 20260509072140 | 61 | 223 | 1.0 | 3.0 | 0.00 | 0.00 | 0.00 | 84 | 1014.5 |
| 20260509071640 | 61 | 223 | 1.0 | 2.0 | 0.00 | 0.00 | 0.00 | 84 | 1014.5 |
| 20260509071141 | 61 | 223 | 1.0 | 3.0 | 0.00 | 0.00 | 0.00 | 84 | 1014.5 |
| 20260509070641 | 61 | 223 | 1.0 | 4.0 | 0.00 | 0.00 | 0.00 | 83 | 1014.6 |
| 20260509070412 | 61 | 223 | 0.0 | 4.0 | 0.00 | 0.00 | 0.00 | 84 | 1014.6 |
| 20260509065640 | 61 | 223 | 1.0 | 3.0 | 0.00 | 0.00 | 0.00 | 83 | 1014.6 |
| 20260509065140 | 61 | 223 | 1.0 | 3.0 | 0.00 | 0.00 | 0.00 | 83 | 1014.6 |
| 20260509064636 | 61 | 223 | 1.0 | 3.0 | 0.00 | 0.00 | 0.00 | 83 | 1014.6 |
| 20260509064409 | 61 | 223 | 1.0 | 3.0 | 0.00 | 0.00 | 0.00 | 83 | 1014.7 |
| 20260509063637 | 62 | 223 | 1.0 | 3.0 | 0.00 | 0.00 | 0.00 | 83 | 1014.7 |
| 20260509063133 | 62 | 223 | 0.0 | 3.0 | 0.00 | 0.00 | 0.00 | 82 | 1014.7 |
| 20260509062633 | 62 | 223 | 1.0 | 4.0 | 0.00 | 0.00 | 0.00 | 82 | 1014.7 |
| 20260509062133 | 62 | 223 | 2.0 | 5.0 | 0.00 | 0.00 | 0.00 | 82 | 1014.7 |
| 20260509061632 | 62 | 223 | 2.0 | 5.0 | 0.00 | 0.00 | 0.00 | 82 | 1014.7 |
| 20260509061129 | 62 | 223 | 2.0 | 5.0 | 0.00 | 0.00 | 0.00 | 82 | 1014.7 |
| 20260509060629 | 62 | 223 | 2.0 | 4.0 | 0.00 | 0.00 | 0.00 | 82 | 1014.8 |